Time,TemperatureF,DewpointF,PressureIn,WindDirection,WindDirectionDegrees,WindSpeedMPH,WindSpeedGustMPH,Humidity,HourlyPrecipIn,Conditions,Clouds,dailyrainin,SoftwareType,DateUTC
2013-03-18 00:00:00,63.1,48.5,30.04,SSW,213,6.0,9.0,59,0.00,,,0.00,Wunderground v.1.15,2013-03-18 04:00:00,
2013-03-18 00:03:00,63.1,48.5,30.04,WSW,253,2.0,9.0,59,0.00,,,0.00,Wunderground v.1.15,2013-03-18 04:03:00,
2013-03-18 00:04:00,63.1,48.5,30.04,SW,226,5.0,9.0,59,0.00,,,0.00,Wunderground v.1.15,2013-03-18 04:04:00,
2013-03-18 00:08:00,63.0,48.4,30.04,SW,223,7.0,9.0,59,0.00,,,0.00,Wunderground v.1.15,2013-03-18 04:08:00,
2013-03-18 00:14:00,62.9,48.3,30.04,SW,216,6.0,8.0,59,0.00,,,0.00,Wunderground v.1.15,2013-03-18 04:14:00,
2013-03-18 00:19:00,62.9,48.3,30.04,SSW,202,7.0,7.0,59,0.00,,,0.00,Wunderground v.1.15,2013-03-18 04:19:00,
2013-03-18 00:24:00,62.9,47.9,30.03,SW,235,8.0,8.0,58,0.00,,,0.00,Wunderground v.1.15,2013-03-18 04:24:00,
2013-03-18 00:30:00,62.9,47.9,30.04,SW,216,10.0,10.0,58,0.00,,,0.00,Wunderground v.1.15,2013-03-18 04:30:00,
2013-03-18 00:36:00,63.0,48.0,30.03,SW,226,12.0,12.0,58,0.00,,,0.00,Wunderground v.1.15,2013-03-18 04:36:00,
2013-03-18 00:41:00,63.0,48.0,30.04,SSW,205,5.0,11.0,58,0.00,,,0.00,Wunderground v.1.15,2013-03-18 04:41:00,
2013-03-18 00:46:00,63.0,47.5,30.04,SW,218,6.0,12.0,57,0.00,,,0.00,Wunderground v.1.15,2013-03-18 04:46:00,
2013-03-18 00:52:00,62.9,47.0,30.03,SW,217,10.0,14.0,56,0.00,,,0.00,Wunderground v.1.15,2013-03-18 04:52:00,
2013-03-18 00:58:00,63.0,46.1,30.03,SSW,207,6.0,14.0,54,0.00,,,0.00,Wunderground v.1.15,2013-03-18 04:58:00,
2013-03-18 01:04:00,63.0,45.6,30.03,SSW,212,6.0,11.0,53,0.00,,,0.00,Wunderground v.1.15,2013-03-18 05:04:00,
2013-03-18 01:10:00,63.0,45.1,30.03,SW,219,5.0,9.0,52,0.00,,,0.00,Wunderground v.1.15,2013-03-18 05:10:00,
2013-03-18 01:15:00,63.0,44.6,30.03,SW,225,6.0,11.0,51,0.00,,,0.00,Wunderground v.1.15,2013-03-18 05:15:00,
2013-03-18 01:21:00,63.0,44.6,30.03,WSW,237,7.0,14.0,51,0.00,,,0.00,Wunderground v.1.15,2013-03-18 05:21:00,
2013-03-18 01:27:00,63.2,44.2,30.03,SSW,205,8.0,14.0,50,0.00,,,0.00,Wunderground v.1.15,2013-03-18 05:27:00,
2013-03-18 01:32:00,63.2,43.7,30.03,SSW,198,10.0,13.0,49,0.00,,,0.00,Wunderground v.1.15,2013-03-18 05:32:00,
2013-03-18 01:37:00,63.2,43.2,30.03,SSW,195,11.0,13.0,48,0.00,,,0.00,Wunderground v.1.15,2013-03-18 05:37:00,
2013-03-18 01:43:00,63.1,42.5,30.03,SW,227,7.0,9.0,47,0.00,,,0.00,Wunderground v.1.15,2013-03-18 05:43:00,
2013-03-18 01:49:00,63.0,42.4,30.02,SW,215,6.0,7.0,47,0.00,,,0.00,Wunderground v.1.15,2013-03-18 05:49:00,
2013-03-18 01:54:00,62.9,41.8,30.02,SSW,209,5.0,9.0,46,0.00,,,0.00,Wunderground v.1.15,2013-03-18 05:54:00,
2013-03-18 01:59:00,62.9,41.8,30.02,SW,221,5.0,6.0,46,0.00,,,0.00,Wunderground v.1.15,2013-03-18 05:59:00,
2013-03-18 02:04:00,62.9,41.8,30.03,SW,219,0.0,12.0,46,0.00,,,0.00,Wunderground v.1.15,2013-03-18 06:04:00,
2013-03-18 02:09:00,62.9,41.2,30.02,SSW,199,8.0,10.0,45,0.00,,,0.00,Wunderground v.1.15,2013-03-18 06:09:00,
2013-03-18 02:14:00,62.9,41.2,30.02,SW,223,4.0,10.0,45,0.00,,,0.00,Wunderground v.1.15,2013-03-18 06:14:00,
2013-03-18 02:19:00,62.9,40.0,30.02,SW,227,7.0,10.0,43,0.00,,,0.00,Wunderground v.1.15,2013-03-18 06:19:00,
2013-03-18 02:24:00,63.0,40.1,30.02,SW,218,4.0,11.0,43,0.00,,,0.00,Wunderground v.1.15,2013-03-18 06:24:00,
2013-03-18 02:29:00,63.0,39.5,30.01,SW,231,4.0,6.0,42,0.00,,,0.00,Wunderground v.1.15,2013-03-18 06:29:00,
2013-03-18 02:34:00,63.2,39.1,30.01,SW,229,6.0,10.0,41,0.00,,,0.00,Wunderground v.1.15,2013-03-18 06:34:00,
2013-03-18 02:39:00,63.2,39.1,30.02,SW,229,5.0,7.0,41,0.00,,,0.00,Wunderground v.1.15,2013-03-18 06:39:00,
2013-03-18 02:44:00,63.3,39.2,30.01,SW,232,5.0,8.0,41,0.00,,,0.00,Wunderground v.1.15,2013-03-18 06:44:00,
2013-03-18 02:49:00,63.3,38.6,30.02,WSW,237,0.0,3.0,40,0.00,,,0.00,Wunderground v.1.15,2013-03-18 06:49:00,
2013-03-18 02:54:00,63.4,38.6,30.02,WSW,240,4.0,8.0,40,0.00,,,0.00,Wunderground v.1.15,2013-03-18 06:54:00,
2013-03-18 03:00:00,63.4,38.6,30.02,WSW,237,0.0,2.0,40,0.00,,,0.00,Wunderground v.1.15,2013-03-18 07:00:00,
2013-03-18 03:05:00,63.4,38.6,30.02,WSW,238,0.0,5.0,40,0.00,,,0.00,Wunderground v.1.15,2013-03-18 07:05:00,
2013-03-18 03:10:00,63.5,38.7,30.02,WSW,239,0.0,0.0,40,0.00,,,0.00,Wunderground v.1.15,2013-03-18 07:10:00,
2013-03-18 03:15:00,63.5,38.7,30.02,WSW,239,0.0,1.0,40,0.00,,,0.00,Wunderground v.1.15,2013-03-18 07:15:00,
2013-03-18 03:20:00,63.5,38.7,30.02,WSW,241,1.0,1.0,40,0.00,,,0.00,Wunderground v.1.15,2013-03-18 07:20:00,
2013-03-18 03:25:00,63.6,38.8,30.02,WSW,249,0.0,2.0,40,0.00,,,0.00,Wunderground v.1.15,2013-03-18 07:25:00,
2013-03-18 03:30:00,63.6,38.8,30.02,West,263,0.0,0.0,40,0.00,,,0.00,Wunderground v.1.15,2013-03-18 07:30:00,
2013-03-18 03:35:00,63.7,39.5,30.02,West,279,0.0,6.0,41,0.00,,,0.00,Wunderground v.1.15,2013-03-18 07:35:00,
2013-03-18 03:40:00,63.7,39.5,30.02,WNW,296,1.0,5.0,41,0.00,,,0.00,Wunderground v.1.15,2013-03-18 07:40:00,
2013-03-18 03:45:00,63.7,39.5,30.02,WNW,298,0.0,5.0,41,0.00,,,0.00,Wunderground v.1.15,2013-03-18 07:45:00,
2013-03-18 03:50:00,63.6,39.5,30.02,WNW,296,0.0,0.0,41,0.00,,,0.00,Wunderground v.1.15,2013-03-18 07:50:00,
2013-03-18 03:55:00,63.6,39.5,30.02,WNW,295,0.0,1.0,41,0.00,,,0.00,Wunderground v.1.15,2013-03-18 07:55:00,
2013-03-18 04:00:00,63.4,38.6,30.02,NNW,330,0.0,5.0,40,0.00,,,0.00,Wunderground v.1.15,2013-03-18 08:00:00,
2013-03-18 04:05:00,63.3,37.9,30.02,NNW,333,0.0,5.0,39,0.00,,,0.00,Wunderground v.1.15,2013-03-18 08:05:00,
2013-03-18 04:10:00,63.2,37.8,30.03,NNW,334,0.0,1.0,39,0.00,,,0.00,Wunderground v.1.15,2013-03-18 08:10:00,
2013-03-18 04:15:00,62.8,37.5,30.03,NNW,335,0.0,5.0,39,0.00,,,0.00,Wunderground v.1.15,2013-03-18 08:15:00,
2013-03-18 04:20:00,62.6,36.6,30.03,NNW,336,2.0,2.0,38,0.00,,,0.00,Wunderground v.1.15,2013-03-18 08:20:00,
2013-03-18 04:25:00,62.6,35.9,30.03,NNW,335,0.0,2.0,37,0.00,,,0.00,Wunderground v.1.15,2013-03-18 08:25:00,
2013-03-18 04:30:00,62.3,35.0,30.03,NNW,336,0.0,0.0,36,0.00,,,0.00,Wunderground v.1.15,2013-03-18 08:30:00,
2013-03-18 04:35:00,62.2,34.9,30.03,NNW,336,0.0,0.0,36,0.00,,,0.00,Wunderground v.1.15,2013-03-18 08:35:00,
2013-03-18 04:40:00,62.1,34.8,30.03,NNW,336,0.0,0.0,36,0.00,,,0.00,Wunderground v.1.15,2013-03-18 08:40:00,
2013-03-18 04:45:00,62.0,34.0,30.03,NNW,336,0.0,0.0,35,0.00,,,0.00,Wunderground v.1.15,2013-03-18 08:45:00,
2013-03-18 04:50:00,62.0,34.0,30.03,NNW,336,0.0,0.0,35,0.00,,,0.00,Wunderground v.1.15,2013-03-18 08:50:00,
2013-03-18 04:55:00,61.9,33.9,30.03,NNW,336,0.0,0.0,35,0.00,,,0.00,Wunderground v.1.15,2013-03-18 08:55:00,
2013-03-18 05:00:00,61.7,33.7,30.02,NNW,336,0.0,0.0,35,0.00,,,0.00,Wunderground v.1.15,2013-03-18 09:00:00,
2013-03-18 05:05:00,61.5,33.6,30.02,NNW,336,0.0,0.0,35,0.00,,,0.00,Wunderground v.1.15,2013-03-18 09:05:00,
2013-03-18 05:10:00,61.4,33.5,30.02,NNW,336,0.0,0.0,35,0.00,,,0.00,Wunderground v.1.15,2013-03-18 09:10:00,
2013-03-18 05:15:00,61.3,32.7,30.03,NNW,336,0.0,0.0,34,0.00,,,0.00,Wunderground v.1.15,2013-03-18 09:15:00,
2013-03-18 05:20:00,61.3,32.7,30.03,NNW,336,0.0,0.0,34,0.00,,,0.00,Wunderground v.1.15,2013-03-18 09:20:00,
2013-03-18 05:25:00,61.3,32.7,30.03,NNW,336,0.0,0.0,34,0.00,,,0.01,Wunderground v.1.15,2013-03-18 09:25:00,
2013-03-18 05:30:00,61.5,33.6,30.03,NNW,336,0.0,0.0,35,0.00,,,0.01,Wunderground v.1.15,2013-03-18 09:30:00,
2013-03-18 05:35:00,61.5,33.6,30.04,NNW,336,0.0,0.0,35,0.00,,,0.01,Wunderground v.1.15,2013-03-18 09:35:00,
2013-03-18 05:40:00,61.5,33.6,30.04,NNW,336,0.0,0.0,35,0.00,,,0.01,Wunderground v.1.15,2013-03-18 09:40:00,
2013-03-18 05:45:00,61.6,34.4,30.04,NNW,336,0.0,0.0,36,0.00,,,0.01,Wunderground v.1.15,2013-03-18 09:45:00,
2013-03-18 05:50:00,61.7,34.5,30.04,NNW,336,0.0,1.0,36,0.00,,,0.01,Wunderground v.1.15,2013-03-18 09:50:00,
2013-03-18 05:55:00,61.7,33.7,30.04,NNW,336,0.0,1.0,35,0.00,,,0.01,Wunderground v.1.15,2013-03-18 09:55:00,
2013-03-18 06:00:00,61.7,33.7,30.04,NNW,336,0.0,5.0,35,0.00,,,0.01,Wunderground v.1.15,2013-03-18 10:00:00,
2013-03-18 06:05:00,61.6,33.7,30.05,NNW,338,0.0,5.0,35,0.00,,,0.01,Wunderground v.1.15,2013-03-18 10:05:00,
2013-03-18 06:10:00,61.7,33.7,30.05,NNW,337,0.0,5.0,35,0.00,,,0.01,Wunderground v.1.15,2013-03-18 10:10:00,
2013-03-18 06:15:00,61.6,32.9,30.05,NNW,337,0.0,5.0,34,0.00,,,0.01,Wunderground v.1.15,2013-03-18 10:15:00,
2013-03-18 06:20:00,61.5,33.6,30.05,NNW,331,3.0,6.0,35,0.00,,,0.01,Wunderground v.1.15,2013-03-18 10:20:00,
2013-03-18 06:25:00,61.5,33.6,30.05,NNW,339,2.0,8.0,35,0.00,,,0.01,Wunderground v.1.15,2013-03-18 10:25:00,
2013-03-18 06:30:00,61.4,33.5,30.05,NNW,328,5.0,7.0,35,0.00,,,0.01,Wunderground v.1.15,2013-03-18 10:30:00,
2013-03-18 06:35:00,61.4,34.2,30.05,NNW,340,5.0,8.0,36,0.00,,,0.01,Wunderground v.1.15,2013-03-18 10:35:00,
2013-03-18 06:40:00,61.5,34.3,30.06,NNW,346,0.0,3.0,36,0.00,,,0.01,Wunderground v.1.15,2013-03-18 10:40:00,
2013-03-18 06:45:00,61.4,34.2,30.06,NNW,334,5.0,5.0,36,0.00,,,0.01,Wunderground v.1.15,2013-03-18 10:45:00,
2013-03-18 06:50:00,61.3,34.1,30.06,NNW,329,0.0,4.0,36,0.00,,,0.01,Wunderground v.1.15,2013-03-18 10:50:00,
2013-03-18 06:55:00,61.3,34.1,30.06,NNW,330,0.0,7.0,36,0.00,,,0.01,Wunderground v.1.15,2013-03-18 10:55:00,
2013-03-18 07:01:00,61.2,34.0,30.06,NNW,337,4.0,7.0,36,0.00,,,0.01,Wunderground v.1.15,2013-03-18 11:01:00,
2013-03-18 07:06:00,61.2,34.0,30.06,NNW,337,0.0,7.0,36,0.00,,,0.01,Wunderground v.1.15,2013-03-18 11:06:00,
2013-03-18 07:11:00,61.1,33.9,30.06,NNW,337,0.0,1.0,36,0.00,,,0.01,Wunderground v.1.15,2013-03-18 11:11:00,
2013-03-18 07:16:00,61.0,33.8,30.06,NNW,337,0.0,1.0,36,0.00,,,0.01,Wunderground v.1.15,2013-03-18 11:16:00,
2013-03-18 07:21:00,60.9,33.7,30.06,NNW,337,0.0,0.0,36,0.00,,,0.01,Wunderground v.1.15,2013-03-18 11:21:00,
2013-03-18 07:26:00,60.8,33.7,30.06,NNW,336,0.0,6.0,36,0.00,,,0.01,Wunderground v.1.15,2013-03-18 11:26:00,
2013-03-18 07:31:00,61.0,33.1,30.06,NNW,338,0.0,1.0,35,0.00,,,0.01,Wunderground v.1.15,2013-03-18 11:31:00,
2013-03-18 07:36:00,61.0,33.8,30.07,NNW,341,0.0,5.0,36,0.00,,,0.01,Wunderground v.1.15,2013-03-18 11:36:00,
2013-03-18 07:41:00,60.9,33.7,30.07,NNW,344,0.0,4.0,36,0.00,,,0.01,Wunderground v.1.15,2013-03-18 11:41:00,
2013-03-18 07:46:00,61.0,33.8,30.07,NNW,344,0.0,4.0,36,0.00,,,0.01,Wunderground v.1.15,2013-03-18 11:46:00,
2013-03-18 07:51:00,61.0,33.8,30.07,NNW,344,0.0,0.0,36,0.00,,,0.01,Wunderground v.1.15,2013-03-18 11:51:00,
2013-03-18 07:56:00,61.0,34.5,30.07,NNW,344,0.0,0.0,37,0.00,,,0.01,Wunderground v.1.15,2013-03-18 11:56:00,
2013-03-18 08:01:00,60.9,34.4,30.07,NNW,344,0.0,0.0,37,0.00,,,0.01,Wunderground v.1.15,2013-03-18 12:01:00,
2013-03-18 08:06:00,60.9,33.7,30.07,North,9,0.0,1.0,36,0.00,,,0.01,Wunderground v.1.15,2013-03-18 12:06:00,
2013-03-18 08:11:00,60.9,33.7,30.07,North,9,0.0,0.0,36,0.00,,,0.01,Wunderground v.1.15,2013-03-18 12:11:00,
2013-03-18 08:16:00,60.8,33.7,30.08,North,5,0.0,2.0,36,0.00,,,0.01,Wunderground v.1.15,2013-03-18 12:16:00,
2013-03-18 08:22:00,60.7,33.6,30.08,North,5,0.0,2.0,36,0.00,,,0.01,Wunderground v.1.15,2013-03-18 12:22:00,
2013-03-18 08:27:00,60.6,33.5,30.08,North,5,0.0,2.0,36,0.00,,,0.01,Wunderground v.1.15,2013-03-18 12:27:00,
2013-03-18 08:32:00,60.8,33.7,30.08,North,5,0.0,0.0,36,0.00,,,0.01,Wunderground v.1.15,2013-03-18 12:32:00,
2013-03-18 08:37:00,60.9,33.7,30.08,ENE,66,1.0,4.0,36,0.00,,,0.01,Wunderground v.1.15,2013-03-18 12:37:00,
2013-03-18 08:42:00,60.9,33.7,30.08,East,91,2.0,6.0,36,0.00,,,0.01,Wunderground v.1.15,2013-03-18 12:42:00,
2013-03-18 08:47:00,60.7,33.6,30.09,ESE,115,0.0,6.0,36,0.00,,,0.01,Wunderground v.1.15,2013-03-18 12:47:00,
2013-03-18 08:52:00,60.6,32.8,30.09,ESE,122,2.0,5.0,35,0.00,,,0.01,Wunderground v.1.15,2013-03-18 12:52:00,
2013-03-18 08:57:00,60.6,32.8,30.08,ESE,112,0.0,6.0,35,0.00,,,0.01,Wunderground v.1.15,2013-03-18 12:57:00,
2013-03-18 09:02:00,60.7,32.9,30.09,East,97,0.0,7.0,35,0.00,,,0.01,Wunderground v.1.15,2013-03-18 13:02:00,
2013-03-18 09:07:00,60.7,32.9,30.09,SE,134,4.0,7.0,35,0.00,,,0.01,Wunderground v.1.15,2013-03-18 13:07:00,
2013-03-18 09:12:00,60.6,32.1,30.09,East,101,4.0,4.0,34,0.00,,,0.01,Wunderground v.1.15,2013-03-18 13:12:00,
2013-03-18 09:17:00,60.6,32.1,30.09,ESE,102,8.0,8.0,34,0.00,,,0.01,Wunderground v.1.15,2013-03-18 13:17:00,
2013-03-18 09:22:00,60.5,32.0,30.09,East,97,0.0,8.0,34,0.00,,,0.01,Wunderground v.1.15,2013-03-18 13:22:00,
2013-03-18 09:27:00,60.5,32.0,30.09,ESE,108,4.0,8.0,34,0.00,,,0.01,Wunderground v.1.15,2013-03-18 13:27:00,
2013-03-18 09:32:00,60.2,31.7,30.09,ENE,78,5.0,8.0,34,0.00,,,0.01,Wunderground v.1.15,2013-03-18 13:32:00,
2013-03-18 09:37:00,60.1,31.6,30.09,ENE,76,5.0,8.0,34,0.00,,,0.01,Wunderground v.1.15,2013-03-18 13:37:00,
2013-03-18 09:42:00,59.9,31.4,30.09,ENE,71,6.0,9.0,34,0.00,,,0.01,Wunderground v.1.15,2013-03-18 13:42:00,
2013-03-18 09:47:00,59.7,31.3,30.09,East,98,9.0,11.0,34,0.00,,,0.01,Wunderground v.1.15,2013-03-18 13:47:00,
2013-03-18 09:52:00,59.6,31.2,30.09,ENE,71,6.0,11.0,34,0.00,,,0.01,Wunderground v.1.15,2013-03-18 13:52:00,
2013-03-18 09:57:00,59.6,31.2,30.09,East,88,5.0,11.0,34,0.00,,,0.01,Wunderground v.1.15,2013-03-18 13:57:00,
2013-03-18 10:02:00,59.5,31.1,30.09,East,98,9.0,11.0,34,0.00,,,0.01,Wunderground v.1.15,2013-03-18 14:02:00,
2013-03-18 10:07:00,59.4,31.0,30.09,East,81,4.0,11.0,34,0.00,,,0.01,Wunderground v.1.15,2013-03-18 14:07:00,
2013-03-18 10:12:00,59.4,31.0,30.09,East,101,4.0,11.0,34,0.00,,,0.01,Wunderground v.1.15,2013-03-18 14:12:00,
2013-03-18 10:17:00,59.8,30.6,30.09,East,90,6.0,11.0,33,0.00,,,0.01,Wunderground v.1.15,2013-03-18 14:17:00,
2013-03-18 10:22:00,59.9,31.4,30.09,East,87,0.0,8.0,34,0.00,,,0.01,Wunderground v.1.15,2013-03-18 14:22:00,
2013-03-18 10:28:00,60.1,31.6,30.09,East,98,0.0,8.0,34,0.00,,,0.01,Wunderground v.1.15,2013-03-18 14:28:00,
2013-03-18 10:33:00,60.1,31.6,30.09,ESE,106,6.0,8.0,34,0.00,,,0.01,Wunderground v.1.15,2013-03-18 14:33:00,
2013-03-18 10:38:00,60.0,31.5,30.09,East,84,5.0,9.0,34,0.00,,,0.01,Wunderground v.1.15,2013-03-18 14:38:00,
2013-03-18 10:43:00,60.3,31.8,30.09,East,97,4.0,9.0,34,0.00,,,0.01,Wunderground v.1.15,2013-03-18 14:43:00,
2013-03-18 10:48:00,60.6,32.1,30.09,East,82,7.0,11.0,34,0.00,,,0.01,Wunderground v.1.15,2013-03-18 14:48:00,
2013-03-18 10:53:00,60.6,32.1,30.09,East,99,6.0,9.0,34,0.00,,,0.01,Wunderground v.1.15,2013-03-18 14:53:00,
2013-03-18 10:58:00,60.8,33.0,30.09,East,101,9.0,11.0,35,0.00,,,0.01,Wunderground v.1.15,2013-03-18 14:58:00,
2013-03-18 11:03:00,60.8,33.0,30.09,East,98,7.0,9.0,35,0.00,,,0.01,Wunderground v.1.15,2013-03-18 15:03:00,
2013-03-18 11:08:00,60.7,33.6,30.09,East,82,6.0,12.0,36,0.00,,,0.01,Wunderground v.1.15,2013-03-18 15:08:00,
2013-03-18 11:13:00,60.7,33.6,30.09,East,94,9.0,11.0,36,0.00,,,0.01,Wunderground v.1.15,2013-03-18 15:13:00,
2013-03-18 11:18:00,60.6,33.5,30.09,East,91,8.0,12.0,36,0.00,,,0.01,Wunderground v.1.15,2013-03-18 15:18:00,
2013-03-18 11:23:00,60.5,33.4,30.09,East,83,8.0,12.0,36,0.00,,,0.01,Wunderground v.1.15,2013-03-18 15:23:00,
2013-03-18 11:28:00,60.8,33.7,30.08,ESE,118,6.0,12.0,36,0.00,,,0.01,Wunderground v.1.15,2013-03-18 15:28:00,
2013-03-18 11:33:00,61.0,34.5,30.08,ESE,105,6.0,12.0,37,0.00,,,0.01,Wunderground v.1.15,2013-03-18 15:33:00,
2013-03-18 11:38:00,61.4,34.9,30.08,ENE,75,10.0,12.0,37,0.00,,,0.01,Wunderground v.1.15,2013-03-18 15:38:00,
2013-03-18 11:43:00,61.6,35.7,30.08,East,89,4.0,11.0,38,0.00,,,0.01,Wunderground v.1.15,2013-03-18 15:43:00,
2013-03-18 11:48:00,61.6,35.7,30.08,ENE,74,4.0,12.0,38,0.00,,,0.01,Wunderground v.1.15,2013-03-18 15:48:00,
2013-03-18 11:53:00,61.4,35.5,30.08,ENE,72,10.0,12.0,38,0.00,,,0.01,Wunderground v.1.15,2013-03-18 15:53:00,
2013-03-18 11:58:00,61.5,35.6,30.08,SE,128,12.0,12.0,38,0.00,,,0.01,Wunderground v.1.15,2013-03-18 15:58:00,
2013-03-18 12:03:00,61.4,35.5,30.07,ESE,122,8.0,13.0,38,0.00,,,0.01,Wunderground v.1.15,2013-03-18 16:03:00,
2013-03-18 12:08:00,61.5,35.6,30.07,ESE,104,7.0,13.0,38,0.00,,,0.01,Wunderground v.1.15,2013-03-18 16:08:00,
2013-03-18 12:13:00,61.6,35.7,30.07,East,98,15.0,15.0,38,0.00,,,0.01,Wunderground v.1.15,2013-03-18 16:13:00,
2013-03-18 12:18:00,61.7,35.8,30.07,East,79,11.0,15.0,38,0.00,,,0.01,Wunderground v.1.15,2013-03-18 16:18:00,
2013-03-18 12:23:00,61.4,36.2,30.07,East,81,12.0,14.0,39,0.00,,,0.01,Wunderground v.1.15,2013-03-18 16:23:00,
2013-03-18 12:28:00,61.1,35.3,30.06,East,100,9.0,14.0,38,0.00,,,0.01,Wunderground v.1.15,2013-03-18 16:28:00,
2013-03-18 12:33:00,60.9,35.1,30.06,East,88,7.0,12.0,38,0.00,,,0.01,Wunderground v.1.15,2013-03-18 16:33:00,
2013-03-18 12:38:00,60.7,34.3,30.07,ESE,113,8.0,12.0,37,0.00,,,0.01,Wunderground v.1.15,2013-03-18 16:38:00,
2013-03-18 12:43:00,60.6,34.2,30.06,East,80,4.0,13.0,37,0.00,,,0.01,Wunderground v.1.15,2013-03-18 16:43:00,
2013-03-18 12:48:00,60.4,34.0,30.06,East,91,6.0,13.0,37,0.00,,,0.01,Wunderground v.1.15,2013-03-18 16:48:00,
2013-03-18 12:53:00,60.2,33.8,30.06,East,82,7.0,13.0,37,0.00,,,0.01,Wunderground v.1.15,2013-03-18 16:53:00,
2013-03-18 12:59:00,60.0,33.6,30.06,East,80,6.0,8.0,37,0.00,,,0.01,Wunderground v.1.15,2013-03-18 16:59:00,
2013-03-18 13:04:00,60.2,34.5,30.06,ENE,78,8.0,11.0,38,0.00,,,0.01,Wunderground v.1.15,2013-03-18 17:04:00,
2013-03-18 13:09:00,59.7,33.4,30.05,East,86,6.0,7.0,37,0.00,,,0.01,Wunderground v.1.15,2013-03-18 17:09:00,
2013-03-18 13:14:00,59.9,33.5,30.05,East,79,7.0,11.0,37,0.00,,,0.01,Wunderground v.1.15,2013-03-18 17:14:00,
2013-03-18 13:19:00,59.9,34.2,30.05,ESE,118,7.0,7.0,38,0.00,,,0.01,Wunderground v.1.15,2013-03-18 17:19:00,
2013-03-18 13:24:00,60.1,33.7,30.05,East,88,6.0,11.0,37,0.00,,,0.01,Wunderground v.1.15,2013-03-18 17:24:00,
2013-03-18 13:29:00,60.5,34.7,30.04,ENE,61,6.0,10.0,38,0.00,,,0.01,Wunderground v.1.15,2013-03-18 17:29:00,
2013-03-18 13:34:00,60.8,35.0,30.04,ENE,73,1.0,10.0,38,0.00,,,0.01,Wunderground v.1.15,2013-03-18 17:34:00,
2013-03-18 13:39:00,60.3,35.2,30.04,ESE,103,8.0,12.0,39,0.00,,,0.01,Wunderground v.1.15,2013-03-18 17:39:00,
2013-03-18 13:44:00,60.0,34.3,30.04,ENE,62,5.0,13.0,38,0.00,,,0.01,Wunderground v.1.15,2013-03-18 17:44:00,
2013-03-18 13:49:00,60.3,34.6,30.03,East,96,6.0,9.0,38,0.00,,,0.01,Wunderground v.1.15,2013-03-18 17:49:00,
2013-03-18 13:54:00,60.4,34.7,30.02,East,92,8.0,12.0,38,0.00,,,0.01,Wunderground v.1.15,2013-03-18 17:54:00,
2013-03-18 13:59:00,60.4,35.3,30.02,ENE,78,10.0,10.0,39,0.00,,,0.01,Wunderground v.1.15,2013-03-18 17:59:00,
2013-03-18 14:04:00,60.1,34.4,30.02,ESE,107,7.0,15.0,38,0.00,,,0.01,Wunderground v.1.15,2013-03-18 18:04:00,
2013-03-18 14:09:00,60.3,34.6,30.02,East,86,6.0,9.0,38,0.00,,,0.01,Wunderground v.1.15,2013-03-18 18:09:00,
2013-03-18 14:14:00,59.9,34.9,30.02,East,95,9.0,14.0,39,0.00,,,0.01,Wunderground v.1.15,2013-03-18 18:14:00,
2013-03-18 14:19:00,59.6,33.9,30.02,East,84,8.0,11.0,38,0.00,,,0.01,Wunderground v.1.15,2013-03-18 18:19:00,
2013-03-18 14:24:00,59.6,33.3,30.01,East,94,9.0,13.0,37,0.00,,,0.01,Wunderground v.1.15,2013-03-18 18:24:00,
2013-03-18 14:29:00,59.9,33.5,30.01,East,79,5.0,9.0,37,0.00,,,0.01,Wunderground v.1.15,2013-03-18 18:29:00,
2013-03-18 14:34:00,60.4,34.0,30.00,ENE,78,9.0,14.0,37,0.00,,,0.01,Wunderground v.1.15,2013-03-18 18:34:00,
2013-03-18 14:39:00,60.1,34.4,30.00,ESE,103,9.0,10.0,38,0.00,,,0.01,Wunderground v.1.15,2013-03-18 18:39:00,
2013-03-18 14:44:00,60.2,33.8,30.00,ENE,63,7.0,12.0,37,0.00,,,0.01,Wunderground v.1.15,2013-03-18 18:44:00,
2013-03-18 14:49:00,59.7,33.4,30.00,East,96,8.0,10.0,37,0.00,,,0.01,Wunderground v.1.15,2013-03-18 18:49:00,
2013-03-18 14:55:00,59.7,33.4,30.00,East,86,10.0,12.0,37,0.00,,,0.02,Wunderground v.1.15,2013-03-18 18:55:00,
2013-03-18 15:00:00,59.6,33.3,30.00,ESE,113,9.0,10.0,37,0.00,,,0.02,Wunderground v.1.15,2013-03-18 19:00:00,
2013-03-18 15:05:00,59.1,32.8,30.00,ENE,75,1.0,12.0,37,0.00,,,0.02,Wunderground v.1.15,2013-03-18 19:05:00,
2013-03-18 15:10:00,59.6,32.6,30.00,East,90,1.0,6.0,36,0.00,,,0.02,Wunderground v.1.15,2013-03-18 19:10:00,
2013-03-18 15:15:00,59.5,32.5,29.99,ENE,76,11.0,11.0,36,0.00,,,0.02,Wunderground v.1.15,2013-03-18 19:15:00,
2013-03-18 15:20:00,59.3,32.3,29.99,ESE,121,9.0,9.0,36,0.00,,,0.02,Wunderground v.1.15,2013-03-18 19:20:00,
2013-03-18 15:25:00,59.8,32.1,29.99,ESE,119,5.0,9.0,35,0.00,,,0.02,Wunderground v.1.15,2013-03-18 19:25:00,
2013-03-18 15:30:00,59.8,32.8,29.99,ENE,64,5.0,9.0,36,0.00,,,0.02,Wunderground v.1.15,2013-03-18 19:30:00,
2013-03-18 15:35:00,60.0,32.9,29.99,ESE,105,8.0,10.0,36,0.00,,,0.02,Wunderground v.1.15,2013-03-18 19:35:00,
2013-03-18 15:40:00,60.2,33.1,29.98,East,93,4.0,8.0,36,0.00,,,0.02,Wunderground v.1.15,2013-03-18 19:40:00,
2013-03-18 15:45:00,60.6,33.5,29.98,ENE,72,7.0,9.0,36,0.00,,,0.02,Wunderground v.1.15,2013-03-18 19:45:00,
2013-03-18 15:50:00,60.6,34.2,29.98,East,88,5.0,7.0,37,0.00,,,0.02,Wunderground v.1.15,2013-03-18 19:50:00,
2013-03-18 15:55:00,60.6,34.2,29.97,ESE,109,8.0,11.0,37,0.00,,,0.02,Wunderground v.1.15,2013-03-18 19:55:00,
2013-03-18 16:00:00,60.4,33.3,29.97,ENE,59,4.0,8.0,36,0.00,,,0.02,Wunderground v.1.15,2013-03-18 20:00:00,
2013-03-18 16:05:00,61.0,33.8,29.96,East,89,2.0,12.0,36,0.00,,,0.02,Wunderground v.1.15,2013-03-18 20:05:00,
2013-03-18 16:10:00,61.4,34.9,29.96,East,79,6.0,12.0,37,0.00,,,0.02,Wunderground v.1.15,2013-03-18 20:10:00,
2013-03-18 16:15:00,61.2,34.7,29.97,ENE,73,7.0,14.0,37,0.00,,,0.02,Wunderground v.1.15,2013-03-18 20:15:00,
2013-03-18 16:20:00,61.4,34.2,29.96,East,92,7.0,8.0,36,0.00,,,0.02,Wunderground v.1.15,2013-03-18 20:20:00,
2013-03-18 16:25:00,61.2,34.0,29.96,ENE,76,8.0,13.0,36,0.00,,,0.02,Wunderground v.1.15,2013-03-18 20:25:00,
2013-03-18 16:30:00,61.1,33.9,29.96,East,92,5.0,11.0,36,0.00,,,0.02,Wunderground v.1.15,2013-03-18 20:30:00,
2013-03-18 16:35:00,61.2,34.0,29.97,East,99,8.0,13.0,36,0.00,,,0.02,Wunderground v.1.15,2013-03-18 20:35:00,
2013-03-18 16:40:00,60.9,33.0,29.97,ESE,102,8.0,13.0,35,0.00,,,0.02,Wunderground v.1.15,2013-03-18 20:40:00,
2013-03-18 16:45:00,61.0,33.1,29.97,East,89,11.0,13.0,35,0.00,,,0.02,Wunderground v.1.15,2013-03-18 20:45:00,
2013-03-18 16:50:00,61.0,33.1,29.96,East,86,10.0,13.0,35,0.00,,,0.02,Wunderground v.1.15,2013-03-18 20:50:00,
2013-03-18 16:55:00,61.1,32.5,29.96,East,88,9.0,13.0,34,0.00,,,0.02,Wunderground v.1.15,2013-03-18 20:55:00,
2013-03-18 17:00:00,61.1,32.5,29.96,ENE,71,6.0,9.0,34,0.00,,,0.02,Wunderground v.1.15,2013-03-18 21:00:00,
2013-03-18 17:05:00,61.3,32.7,29.95,ESE,123,10.0,12.0,34,0.00,,,0.02,Wunderground v.1.15,2013-03-18 21:05:00,
2013-03-18 17:10:00,61.4,32.8,29.95,East,101,8.0,12.0,34,0.00,,,0.02,Wunderground v.1.15,2013-03-18 21:10:00,
2013-03-18 17:15:00,61.4,32.8,29.95,ESE,103,4.0,12.0,34,0.00,,,0.02,Wunderground v.1.15,2013-03-18 21:15:00,
2013-03-18 17:20:00,61.3,32.7,29.95,ESE,109,10.0,12.0,34,0.00,,,0.02,Wunderground v.1.15,2013-03-18 21:20:00,
2013-03-18 17:25:00,61.2,32.6,29.95,ENE,75,7.0,12.0,34,0.00,,,0.02,Wunderground v.1.15,2013-03-18 21:25:00,
2013-03-18 17:30:00,61.3,32.7,29.95,ESE,103,6.0,10.0,34,0.00,,,0.02,Wunderground v.1.15,2013-03-18 21:30:00,
2013-03-18 17:35:00,61.5,32.8,29.96,East,85,0.0,10.0,34,0.00,,,0.02,Wunderground v.1.15,2013-03-18 21:35:00,
2013-03-18 17:40:00,61.7,33.0,29.96,East,83,4.0,10.0,34,0.00,,,0.02,Wunderground v.1.15,2013-03-18 21:40:00,
2013-03-18 17:45:00,61.7,33.0,29.96,ESE,107,8.0,10.0,34,0.00,,,0.02,Wunderground v.1.15,2013-03-18 21:45:00,
2013-03-18 17:50:00,61.7,32.3,29.95,ESE,108,8.0,10.0,33,0.00,,,0.02,Wunderground v.1.15,2013-03-18 21:50:00,
2013-03-18 17:55:00,61.7,32.3,29.95,East,96,1.0,10.0,33,0.00,,,0.02,Wunderground v.1.15,2013-03-18 21:55:00,
2013-03-18 18:00:00,61.8,32.4,29.95,ESE,106,6.0,6.0,33,0.00,,,0.02,Wunderground v.1.15,2013-03-18 22:00:00,
2013-03-18 18:05:00,61.9,32.5,29.95,East,80,8.0,9.0,33,0.00,,,0.02,Wunderground v.1.15,2013-03-18 22:05:00,
2013-03-18 18:10:00,62.0,32.5,29.95,ENE,69,4.0,7.0,33,0.00,,,0.02,Wunderground v.1.15,2013-03-18 22:10:00,
2013-03-18 18:15:00,62.1,32.6,29.94,SE,125,6.0,10.0,33,0.00,,,0.02,Wunderground v.1.15,2013-03-18 22:15:00,
2013-03-18 18:20:00,62.0,32.5,29.94,ESE,114,8.0,8.0,33,0.00,,,0.02,Wunderground v.1.15,2013-03-18 22:20:00,
2013-03-18 18:25:00,62.1,32.6,29.94,ESE,102,1.0,10.0,33,0.00,,,0.02,Wunderground v.1.15,2013-03-18 22:25:00,
2013-03-18 18:30:00,62.1,32.6,29.94,ESE,113,10.0,10.0,33,0.00,,,0.02,Wunderground v.1.15,2013-03-18 22:30:00,
2013-03-18 18:35:00,61.9,32.5,29.94,ESE,110,6.0,10.0,33,0.00,,,0.02,Wunderground v.1.15,2013-03-18 22:35:00,
2013-03-18 18:40:00,62.0,32.5,29.93,ESE,105,8.0,8.0,33,0.00,,,0.02,Wunderground v.1.15,2013-03-18 22:40:00,
2013-03-18 18:45:00,62.1,32.6,29.94,East,96,1.0,8.0,33,0.00,,,0.02,Wunderground v.1.15,2013-03-18 22:45:00,
2013-03-18 18:50:00,62.0,32.5,29.94,East,98,1.0,3.0,33,0.00,,,0.02,Wunderground v.1.15,2013-03-18 22:50:00,
2013-03-18 18:55:00,61.9,32.5,29.93,ESE,110,8.0,9.0,33,0.00,,,0.02,Wunderground v.1.15,2013-03-18 22:55:00,
2013-03-18 19:00:00,61.9,32.5,29.93,East,82,8.0,8.0,33,0.00,,,0.02,Wunderground v.1.15,2013-03-18 23:00:00,
2013-03-18 19:05:00,61.8,32.4,29.93,ENE,73,7.0,9.0,33,0.00,,,0.02,Wunderground v.1.15,2013-03-18 23:05:00,
2013-03-18 19:10:00,61.9,32.5,29.92,East,92,3.0,8.0,33,0.00,,,0.02,Wunderground v.1.15,2013-03-18 23:10:00,
2013-03-18 19:15:00,61.9,32.5,29.93,ENE,74,4.0,10.0,33,0.00,,,0.02,Wunderground v.1.15,2013-03-18 23:15:00,
2013-03-18 19:20:00,61.9,33.2,29.92,ESE,103,8.0,9.0,34,0.00,,,0.02,Wunderground v.1.15,2013-03-18 23:20:00,
2013-03-18 19:25:00,61.9,33.2,29.92,East,101,5.0,9.0,34,0.00,,,0.02,Wunderground v.1.15,2013-03-18 23:25:00,
2013-03-18 19:30:00,61.9,33.2,29.92,East,98,6.0,8.0,34,0.00,,,0.02,Wunderground v.1.15,2013-03-18 23:30:00,
2013-03-18 19:35:00,61.8,33.1,29.91,ENE,78,4.0,9.0,34,0.00,,,0.02,Wunderground v.1.15,2013-03-18 23:35:00,
2013-03-18 19:40:00,61.7,33.0,29.91,ESE,113,4.0,9.0,34,0.00,,,0.02,Wunderground v.1.15,2013-03-18 23:40:00,
2013-03-18 19:45:00,61.6,32.9,29.91,East,86,7.0,9.0,34,0.00,,,0.02,Wunderground v.1.15,2013-03-18 23:45:00,
2013-03-18 19:50:00,61.5,32.8,29.91,ESE,103,5.0,9.0,34,0.00,,,0.02,Wunderground v.1.15,2013-03-18 23:50:00,
2013-03-18 19:56:00,61.4,32.8,29.90,East,83,5.0,11.0,34,0.00,,,0.02,Wunderground v.1.15,2013-03-18 23:56:00,
2013-03-18 20:01:00,61.4,32.8,29.90,ESE,122,2.0,6.0,34,0.00,,,0.02,Wunderground v.1.15,2013-03-19 00:01:00,
2013-03-18 20:06:00,61.3,31.9,29.90,ENE,69,2.0,8.0,33,0.00,,,0.02,Wunderground v.1.15,2013-03-19 00:06:00,
2013-03-18 20:11:00,61.2,31.8,29.89,ENE,71,3.0,8.0,33,0.00,,,0.02,Wunderground v.1.15,2013-03-19 00:11:00,
2013-03-18 20:16:00,61.2,31.8,29.89,East,80,7.0,9.0,33,0.00,,,0.02,Wunderground v.1.15,2013-03-19 00:16:00,
2013-03-18 20:21:00,61.3,31.9,29.90,East,90,6.0,7.0,33,0.00,,,0.02,Wunderground v.1.15,2013-03-19 00:21:00,
2013-03-18 20:26:00,61.5,32.1,29.90,East,95,0.0,7.0,33,0.00,,,0.02,Wunderground v.1.15,2013-03-19 00:26:00,
2013-03-18 20:31:00,61.6,32.2,29.91,East,90,5.0,6.0,33,0.00,,,0.02,Wunderground v.1.15,2013-03-19 00:31:00,
2013-03-18 20:36:00,61.6,32.2,29.91,East,90,0.0,6.0,33,0.00,,,0.02,Wunderground v.1.15,2013-03-19 00:36:00,
2013-03-18 20:41:00,61.9,32.5,29.92,East,96,0.0,5.0,33,0.00,,,0.02,Wunderground v.1.15,2013-03-19 00:41:00,
2013-03-18 20:46:00,62.1,32.6,29.92,East,100,0.0,7.0,33,0.00,,,0.02,Wunderground v.1.15,2013-03-19 00:46:00,
2013-03-18 20:51:00,62.1,32.6,29.92,East,94,0.0,1.0,33,0.00,,,0.02,Wunderground v.1.15,2013-03-19 00:51:00,
2013-03-18 20:56:00,62.3,32.8,29.92,East,95,0.0,1.0,33,0.00,,,0.02,Wunderground v.1.15,2013-03-19 00:56:00,
2013-03-18 21:01:00,62.4,32.9,29.92,East,96,0.0,0.0,33,0.00,,,0.02,Wunderground v.1.15,2013-03-19 01:01:00,
2013-03-18 21:06:00,62.7,33.2,29.92,East,98,0.0,4.0,33,0.00,,,0.02,Wunderground v.1.15,2013-03-19 01:06:00,
2013-03-18 21:11:00,62.8,33.2,29.91,SE,138,6.0,6.0,33,0.00,,,0.02,Wunderground v.1.15,2013-03-19 01:11:00,
2013-03-18 21:16:00,63.0,33.4,29.91,SE,137,2.0,7.0,33,0.00,,,0.02,Wunderground v.1.15,2013-03-19 01:16:00,
2013-03-18 21:21:00,63.2,33.6,29.90,ESE,120,0.0,11.0,33,0.00,,,0.02,Wunderground v.1.15,2013-03-19 01:21:00,
2013-03-18 21:26:00,63.0,33.4,29.90,SE,128,5.0,11.0,33,0.00,,,0.02,Wunderground v.1.15,2013-03-19 01:26:00,
2013-03-18 21:31:00,62.8,33.2,29.89,ESE,110,7.0,8.0,33,0.00,,,0.02,Wunderground v.1.15,2013-03-19 01:31:00,
2013-03-18 21:37:00,62.6,33.1,29.89,East,83,7.0,9.0,33,0.00,,,0.02,Wunderground v.1.15,2013-03-19 01:37:00,
2013-03-18 21:42:00,62.3,32.8,29.89,SE,136,9.0,10.0,33,0.00,,,0.02,Wunderground v.1.15,2013-03-19 01:42:00,
2013-03-18 21:47:00,62.4,32.9,29.90,ESE,104,6.0,10.0,33,0.00,,,0.02,Wunderground v.1.15,2013-03-19 01:47:00,
2013-03-18 21:52:00,62.4,32.9,29.89,SE,137,6.0,9.0,33,0.00,,,0.02,Wunderground v.1.15,2013-03-19 01:52:00,
2013-03-18 21:57:00,62.6,33.1,29.88,SE,144,0.0,9.0,33,0.00,,,0.02,Wunderground v.1.15,2013-03-19 01:57:00,
2013-03-18 22:02:00,62.8,33.2,29.88,SSE,148,0.0,10.0,33,0.00,,,0.02,Wunderground v.1.15,2013-03-19 02:02:00,
2013-03-18 22:07:00,63.0,33.4,29.88,SSE,152,1.0,10.0,33,0.00,,,0.02,Wunderground v.1.15,2013-03-19 02:07:00,
2013-03-18 22:12:00,63.1,33.5,29.88,SSE,159,4.0,11.0,33,0.00,,,0.02,Wunderground v.1.15,2013-03-19 02:12:00,
2013-03-18 22:17:00,63.2,33.6,29.88,SSE,163,8.0,11.0,33,0.00,,,0.02,Wunderground v.1.15,2013-03-19 02:17:00,
2013-03-18 22:22:00,63.4,33.8,29.88,South,180,5.0,8.0,33,0.00,,,0.02,Wunderground v.1.15,2013-03-19 02:22:00,
2013-03-18 22:27:00,63.6,33.9,29.88,SSE,160,2.0,11.0,33,0.00,,,0.02,Wunderground v.1.15,2013-03-19 02:27:00,
2013-03-18 22:32:00,63.9,34.2,29.88,South,189,5.0,11.0,33,0.00,,,0.02,Wunderground v.1.15,2013-03-19 02:32:00,
2013-03-18 22:37:00,64.1,34.4,29.88,South,171,0.0,11.0,33,0.00,,,0.02,Wunderground v.1.15,2013-03-19 02:37:00,
2013-03-18 22:42:00,64.3,34.6,29.89,South,177,8.0,10.0,33,0.00,,,0.02,Wunderground v.1.15,2013-03-19 02:42:00,
2013-03-18 22:47:00,64.7,34.9,29.89,SSE,157,12.0,12.0,33,0.00,,,0.02,Wunderground v.1.15,2013-03-19 02:47:00,
2013-03-18 22:52:00,65.1,35.3,29.88,SSE,165,12.0,13.0,33,0.00,,,0.02,Wunderground v.1.15,2013-03-19 02:52:00,
2013-03-18 22:57:00,65.5,35.6,29.88,South,170,8.0,16.0,33,0.00,,,0.02,Wunderground v.1.15,2013-03-19 02:57:00,
2013-03-18 23:02:00,65.8,35.9,29.88,SE,138,11.0,18.0,33,0.00,,,0.02,Wunderground v.1.15,2013-03-19 03:02:00,
2013-03-18 23:07:00,66.1,36.1,29.89,SSW,196,15.0,18.0,33,0.00,,,0.02,Wunderground v.1.15,2013-03-19 03:07:00,
2013-03-18 23:12:00,66.3,37.1,29.89,SSE,159,14.0,16.0,34,0.00,,,0.02,Wunderground v.1.15,2013-03-19 03:12:00,
2013-03-18 23:18:00,66.5,37.2,29.89,SW,225,13.0,19.0,34,0.00,,,0.02,Wunderground v.1.15,2013-03-19 03:18:00,
2013-03-18 23:23:00,66.6,37.3,29.89,South,182,12.0,16.0,34,0.00,,,0.02,Wunderground v.1.15,2013-03-19 03:23:00,
2013-03-18 23:28:00,66.8,38.3,29.89,South,180,10.0,20.0,35,0.00,,,0.02,Wunderground v.1.15,2013-03-19 03:28:00,
2013-03-18 23:33:00,66.9,38.3,29.89,SW,219,14.0,16.0,35,0.00,,,0.02,Wunderground v.1.15,2013-03-19 03:33:00,
2013-03-18 23:38:00,66.8,38.3,29.89,SSW,210,12.0,18.0,35,0.00,,,0.02,Wunderground v.1.15,2013-03-19 03:38:00,
2013-03-18 23:43:00,66.9,38.3,29.91,SW,233,9.0,18.0,35,0.00,,,0.02,Wunderground v.1.15,2013-03-19 03:43:00,
2013-03-18 23:48:00,66.5,36.5,29.95,NW,310,13.0,19.0,33,0.00,,,0.02,Wunderground v.1.15,2013-03-19 03:48:00,
2013-03-18 23:53:00,63.5,38.1,29.95,West,272,12.0,29.0,39,0.00,,,0.02,Wunderground v.1.15,2013-03-19 03:53:00,
2013-03-18 23:58:00,61.0,34.5,29.95,NNW,327,19.0,29.0,37,0.00,,,0.02,Wunderground v.1.15,2013-03-19 03:58:00,